PAMPLONA / NOAIN current weather conditions

sailwx.info

Wind from 360 at 7 knots

Air temperature 6.0° C
Visibility: greater than 5.4 NM
Dewpoint 3.0° C

Last reported at 2015-Jan-26 20:30 UTC.
Time now 2015-Jan-26 22:35 UTC

Location: N 42°46' W 001°38'.
View on Google Maps.

See reports from other nearby stations

  
Tides and Currents Weather Stations Pressure Air Temp Water Temp Dewpoint Dewpoint Depression Visibility Wind Speed Wind Dir Waves Ship Positions
date/time (UTC)wind fromknots sea level pressurealtimeterstation pressurevisibilityair tempwater tempwave heightnotes
2015-Jan-26 21:30 350 11 5.4 6.0
2015-Jan-26 21:00 360 9 5.4 6.0
2015-Jan-26 20:30 360 7 5.4 6.0
2015-Jan-26 20:00 340 7 5.4 5.0
2015-Jan-26 19:30 5.4 5.0
2015-Jan-26 19:00 340 6 5.4 5.0
2015-Jan-26 18:30 350 9 5.4 5.0
2015-Jan-26 18:00 350 9 5.4 5.0
2015-Jan-26 17:30 350 11 5.4 5.0
2015-Jan-26 17:00 360 13 5.4 5.0
2015-Jan-26 16:30 350 12 5.4 5.0
2015-Jan-26 16:00 340 12 5.4 6.0
2015-Jan-26 15:30 340 14 5.4 6.0
2015-Jan-26 15:00 350 14 5.4 6.0
2015-Jan-26 14:30 350 15 5.4 6.0
2015-Jan-26 14:00 330 15 5.4 6.0
2015-Jan-26 13:30 340 15 5.4 7.0
2015-Jan-26 13:00 330 17 5.4 7.0
2015-Jan-26 12:30 320 13 5.4 6.0
2015-Jan-26 12:00 320 12 5.4 6.0
2015-Jan-26 11:30 330 13 5.4 5.0
2015-Jan-26 11:00 340 13 5.4 6.0
2015-Jan-26 10:30 320 11 5.4 6.0
2015-Jan-26 10:00 320 12 5.4 4.0
2015-Jan-26 09:30 330 10 gusting 20 5.4 4.0
2015-Jan-26 09:00 310 9 5.4 4.0
2015-Jan-26 08:30 310 7 5.4 4.0
2015-Jan-26 08:00 340 13 5.4 3.0
2015-Jan-26 07:30 340 16 5.4 3.0
2015-Jan-26 07:00 340 13 5.4 3.0
2015-Jan-26 06:30 340 16 5.4 3.0
2015-Jan-26 06:00 330 11 5.4 2.0
2015-Jan-26 05:30 330 9 5.4 3.0
2015-Jan-26 05:00 330 9 5.4 3.0
2015-Jan-26 04:30 340 7 5.4 3.0
2015-Jan-25 23:00 320 7 5.4 2.0
2015-Jan-25 22:30 330 6 5.4 2.0
2015-Jan-25 22:00 330 8 5.4 3.0
2015-Jan-25 21:30 330 9 5.4 3.0
2015-Jan-25 21:00 350 15 5.4 3.0
2015-Jan-25 20:30 350 15 5.4 3.0
2015-Jan-25 20:00 340 14 5.4 3.0
2015-Jan-25 19:30 340 15 5.4 3.0
2015-Jan-25 19:00 340 14 5.4 3.0
2015-Jan-25 18:30 350 15 5.4 3.0
2015-Jan-25 18:00 340 16 5.4 3.0
2015-Jan-25 17:30 340 18 5.4 3.0
2015-Jan-25 17:00 340 19 5.4 4.0
2015-Jan-25 16:30 340 23 gusting 33 5.4 4.0
2015-Jan-25 16:00 340 20 gusting 31 5.4 5.0
2015-Jan-25 15:30 350 20 5.4 5.0
2015-Jan-25 15:00 340 22 5.4 6.0
2015-Jan-25 14:30 340 22 gusting 32 5.4 6.0
2015-Jan-25 14:00 330 20 5.4 6.0
2015-Jan-25 13:30 340 20 5.4 6.0
2015-Jan-25 13:00 340 20 5.4 6.0
2015-Jan-25 12:30 340 20 5.4 6.0
2015-Jan-25 12:00 340 20 gusting 30 5.4 6.0
2015-Jan-25 11:30 340 20 gusting 30 5.4 5.0
2015-Jan-25 11:00 340 22 gusting 33 5.4 5.0
2015-Jan-25 10:30 340 24 5.4 4.0
2015-Jan-25 10:00 340 25 gusting 36 5.4 4.0
2015-Jan-25 09:30 340 26 5.4 4.0
2015-Jan-25 09:00 340 26 gusting 36 5.4 3.0
2015-Jan-25 08:30 340 24 5.4 3.0
2015-Jan-25 08:00 340 24 gusting 35 5.4 3.0
2015-Jan-25 07:30 340 22 gusting 32 5.4 2.0
2015-Jan-25 07:00 340 22 gusting 33 5.4 2.0
2015-Jan-25 06:30 340 19 2.0
2015-Jan-25 06:00 340 19 2.0
2015-Jan-25 05:30 340 17 2.0
2015-Jan-25 05:00 340 16 2.0
2015-Jan-25 04:30 340 16 2.0
2015-Jan-24 23:00 350 16 5.4 3.0
2015-Jan-24 22:30 360 17 gusting 29 5.4 4.0
2015-Jan-24 22:00 350 15 gusting 25 5.4 6.0